Flag for U.S.A. Weather past 2 weeks in Galveston, Texas, U.S.A.

Now
65 °F

Overcast.


Feels Like: 65 °F
Forecast: 62 / 67 °F
Wind: 12 mph from Southeast

Location: Scholes Field

Current Time: Dec 26, 2014 at 9:05:27 AM

Latest Report: Dec 26, 2014 at 7:52 AM


Visibility: 10 mi

Pressure: 30.03 "Hg

Humidity: 87%

Dew point: 61 °F

Location of GalvestonLocation

Historic Weather in Galveston — Graph

°F

Galveston temperature yesterday

Maximum temperature yesterday: 63 °F (at 11:52 AM)
Minimum temperature yesterday: 45 °F (at 6:52 AM)
Average temperature yesterday: 56 °F

Past Weeks' High & Low Weather Summary

 TemperatureHumidityPressure
High73 °F (Dec 15, 12:52 PM)100% (Dec 15, 8:03 AM)30.32 "Hg (Dec 15, 8:03 AM)
Low45 °F (Dec 24, 5:52 AM)44% (Dec 16, 1:52 PM)29.58 "Hg (Dec 23, 8:52 AM)
Average61 °F84%30.06 "Hg
* Reported Dec 11 7:52 AM — Dec 26 7:52 AM, Galveston, Weather by CustomWeather, © 2014

Note: Actual official high and low records may vary slightly from our data, if they occured in-between our weather recording intervals... More about our weather records

Advertising

Galveston weather history for previous 24 hours

 ConditionsComfort  
Time TempWeatherWind HumidityBarometerVisibility
7:52 AM
Dec 26
65 °FOvercast.12 mph87%30.03 "Hg10 mi
6:52 AM64 °FOvercast.13 mph90%30.02 "Hg10 mi
5:52 AM64 °FMostly cloudy.14 mph87%30.02 "Hg10 mi
5:03 AM63 °FMostly cloudy.12 mph90%30.03 "Hg10 mi
4:52 AM63 °FMostly cloudy.12 mph87%30.02 "Hg10 mi
3:52 AM64 °FOvercast.13 mph84%30.03 "Hg10 mi
2:52 AM64 °FOvercast.16 mph81%30.04 "Hg10 mi
1:52 AM63 °FPassing clouds.15 mph78%30.05 "Hg10 mi
12:52 AM63 °FClear.16 mph78%30.05 "Hg10 mi
11:52 PM
Dec 25
63 °FPassing clouds.20 mph73%30.06 "Hg10 mi
10:52 PM63 °FPassing clouds.16 mph73%30.08 "Hg10 mi
9:52 PM62 °FClear.15 mph73%30.07 "Hg10 mi
8:52 PM61 °FClear.15 mph75%30.08 "Hg10 mi
7:52 PM60 °FClear.14 mph75%30.08 "Hg10 mi
6:52 PM60 °FPassing clouds.14 mph72%30.07 "Hg10 mi
5:52 PM60 °FPassing clouds.12 mph72%30.07 "Hg10 mi
4:52 PM61 °FPassing clouds.13 mph62%30.09 "Hg10 mi
3:52 PM62 °FScattered clouds.16 mph62%30.11 "Hg10 mi
2:52 PM62 °FSunny.17 mph62%30.11 "Hg10 mi
1:52 PM63 °FSunny.17 mph60%30.13 "Hg10 mi
12:52 PM63 °FSunny.16 mph58%30.15 "Hg10 mi
11:52 AM63 °FSunny.16 mph56%30.18 "Hg10 mi
10:52 AM61 °FSunny.15 mph54%30.19 "Hg10 mi
9:52 AM59 °FSunny.16 mph56%30.21 "Hg10 mi
Weather by CustomWeather, © 2014

See weather overviewHow to use our weather pages